Temperature
15 14 14 14 14 13 14 13 13 13 13 12 12 12 12 11 11 10 10 11 10 10 10 10 10 10 10 9 10 10 10 10 10 10 10 10 10 10 10 10 10 10 10
15 15 14 14 14 14 13 13 13 13 12 12 12 12 12 11 11 10 10 10 10 10 10 10 10 9 9 9 9 9 9 9 9 9 9 9 9 9 9 9 9 9 9
15 15 14 14 14 13 13 13 12 12 12 12 12 12 12 11 11 10 10 9 10 10 10 10 10 9 9 9 9 9 9 9 9 9 8 8 8 8 8 7 7 8 8
15 14 14 14 13 13 13 13 13 12 12 12 12 12 12 12 11 10 10 10 9 9 10 10 9 9 9 9 8 8 8 8 8 8 8 7 7 7 7 6 6 6 6
15 14 14 14 13 13 13 13 12 12 12 12 11 11 11 11 11 11 10 10 10 10 9 10 9 9 9 9 8 8 8 8 7 7 7 7 6 6 5 5 5 4 4
15 15 14 14 13 13 13 12 12 12 12 11 11 11 11 11 11 11 11 10 10 10 9 9 9 9 9 8 8 8 7 7 7 7 7 6 5 5 4 4 4 4 4
16 15 15 14 14 13 13 13 12 12 11 11 11 11 11 11 11 11 11 10 10 10 10 9 9 9 9 8 8 8 7 7 7 6 6 5 5 4 4 3 3 3 3
16 16 15 15 14 14 13 13 12 12 11 11 11 10 10 10 11 11 11 11 10 10 10 9 9 9 8 8 8 7 7 6 6 6 5 5 4 3 3 3 3 3 3
17 16 16 15 14 14 13 13 13 12 12 12 11 10 10 11 10 11 11 11 10 10 10 9 9 8 8 7 7 7 6 6 6 5 5 4 3 3 3 2 2 2 2
16 16 15 15 14 14 14 13 13 13 12 11 11 11 11 11 11 11 11 11 10 10 9 9 8 8 7 7 6 6 6 5 5 5 4 4 3 2 2 2 2 2 2
14 14 14 14 14 13 14 13 13 13 12 12 12 12 11 10 11 11 11 11 10 10 9 8 8 7 7 6 6 5 5 5 4 4 4 3 2 2 1 1 1 1 1
13 13 13 13 13 13 13 13 13 13 12 12 11 11 11 11 10 10 10 10 10 10 9 8 7 7 6 5 5 4 4 4 4 3 3 3 2 1 1 1 1 0 0
12 13 13 13 12 12 12 12 12 12 12 11 11 11 11 10 10 10 9 9 9 8 8 7 6 6 5 4 4 3 3 3 2 2 2 2 1 1 1 1 0 -0 -1
12 12 12 12 12 11 11 11 11 11 11 11 10 10 10 10 10 9 9 8 7 6 6 6 5 5 4 3 3 2 1 1 1 1 1 1 1 1 1 1 0 -1 -1
12 12 11 11 11 10 10 10 10 10 10 10 10 10 9 9 9 8 8 7 6 5 5 5 4 4 3 2 2 1 1 0 1 1 1 0 0 0 0 -0 -1 -1 -2
11 11 11 10 10 10 9 9 9 9 9 9 9 9 8 8 7 7 6 5 5 5 4 3 3 2 2 1 1 0 -0 -0 -0 0 -0 -1 -1 -1 -1 -2 -2 -2 -3
11 10 10 10 9 9 9 9 9 9 9 9 9 8 7 7 6 5 5 4 4 4 3 2 2 1 1 0 -0 -1 -1 -1 -1 -1 -1 -1 -2 -2 -2 -3 -3 -4 -4
9 9 9 9 8 8 8 8 8 8 8 8 7 7 6 5 4 4 3 3 3 2 2 1 1 -0 -0 -1 -1 -1 -2 -2 -2 -2 -2 -2 -3 -3 -3 -3 -4 -4 -5
8 8 8 8 8 8 8 8 7 7 7 6 5 5 4 4 3 3 2 2 2 1 0 -0 -1 -2 -2 -2 -2 -2 -3 -3 -3 -3 -3 -3 -3 -3 -4 -4 -4 -4 -5
7 7 7 7 7 7 6 6 6 5 5 4 3 3 2 2 2 2 1 1 0 -0 -1 -2 -2 -3 -3 -4 -4 -5 -5 -5 -4 -4 -3 -4 -4 -4 -4 -4 -4 -4 -4
6 5 5 5 5 4 4 4 4 3 3 2 2 2 1 1 1 1 0 -0 -1 -2 -3 -3 -4 -5 -5 -5 -6 -6 -6 -6 -5 -5 -5 -5 -5 -4 -4 -4 -4 -4 -4
4 3 3 2 2 2 1 1 1 1 1 1 1 1 0 -0 -0 -1 -1 -2 -2 -3 -4 -5 -5 -6 -6 -7 -7 -7 -7 -8 -7 -6 -7 -6 -6 -5 -5 -4 -4 -4 -5
1 1 0 0 0 -0 -0 -0 0 0 0 0 -0 -0 -1 -1 -1 -2 -2 -3 -3 -4 -5 -5 -6 -7 -7 -7 -8 -8 -8 -8 -8 -7 -8 -7 -6 -6 -5 -5 -4 -4 -5
0 -0 -1 -1 -1 -1 -1 -1 -1 -1 -1 -1 -1 -1 -2 -2 -3 -3 -3 -4 -4 -5 -6 -6 -7 -7 -7 -7 -8 -8 -8 -8 -7 -7 -7 -8 -7 -7 -6 -5 -4 -4 -4
-1 -1 -1 -1 -1 -1 -1 -1 -1 -1 -2 -2 -2 -2 -3 -3 -4 -4 -5 -5 -5 -6 -6 -6 -7 -7 -7 -7 -8 -8 -8 -8 -8 -7 -7 -8 -7 -7 -6 -4 -4 -4 -4
-1 -1 -1 -1 -1 -2 -2 -2 -2 -2 -3 -3 -3 -3 -4 -4 -5 -6 -6 -6 -6 -7 -7 -7 -7 -7 -7 -7 -7 -7 -8 -8 -8 -8 -7 -8 -8 -8 -8 -5 -5 -5 -5
Wind_Speed
10 10 9 10 10 9 9 8 8 7 7 6 6 6 6 7 7 6 8 11 11 10 8 7 6 6 6 6 6 6 6 7 7 7 7 7 7 8 8 8 8 9 9
12 11 10 10 11 11 10 9 9 8 7 7 7 7 7 7 7 8 8 10 11 10 9 7 6 5 5 5 5 5 5 5 6 6 6 6 7 7 7 7 8 8 9
15 13 11 10 12 12 12 10 9 8 6 6 7 7 7 7 8 9 9 9 10 10 9 8 7 6 5 4 4 4 4 4 5 5 5 6 6 7 7 7 8 8 9
18 15 12 11 14 13 12 9 9 8 8 7 7 6 7 7 9 9 9 9 9 9 10 9 8 7 5 3 2 3 3 3 4 5 5 6 7 7 8 8 9 10 10
21 17 13 13 15 13 11 10 10 10 9 8 7 6 6 7 8 9 10 11 10 10 9 10 9 7 5 3 1 1 3 4 5 5 6 7 8 9 9 10 11 12 12
21 19 14 16 16 12 12 12 12 10 9 8 7 6 6 7 7 9 10 11 10 11 11 10 10 8 6 4 2 1 3 5 6 7 7 8 9 10 11 12 13 14 15
20 19 14 15 15 15 15 16 13 13 10 8 6 5 6 7 8 8 9 10 11 12 12 12 10 9 8 6 3 1 3 4 6 7 9 10 11 12 13 14 15 16 17
20 17 18 16 16 15 17 17 16 11 9 10 8 5 6 7 8 9 9 9 11 12 12 12 11 10 8 7 4 2 1 3 6 8 9 11 12 14 15 17 18 19 19
21 19 19 17 16 16 16 19 19 18 13 12 11 8 6 9 5 7 10 10 10 10 10 11 11 10 9 7 6 4 1 2 5 8 10 12 14 16 18 19 20 21 21
19 20 18 18 17 16 17 18 20 18 17 13 11 10 7 3 5 5 6 8 9 10 10 9 10 10 9 7 5 3 2 2 5 8 11 14 16 18 19 21 21 22 22
17 17 17 17 17 16 18 18 19 20 17 16 11 8 9 4 5 5 5 6 7 7 8 8 8 8 9 8 7 5 3 3 6 10 13 16 18 20 21 22 22 22 23
14 17 16 16 17 15 17 18 18 20 18 18 14 11 9 7 8 7 5 4 5 5 6 5 6 7 8 8 7 5 3 4 8 12 15 18 19 20 21 22 23 23 23
13 15 15 16 15 15 15 14 15 16 18 17 15 12 10 8 5 6 5 4 3 3 4 4 4 6 7 7 6 5 5 6 10 13 17 19 20 21 22 22 23 24 24
12 13 14 14 14 13 12 12 11 12 11 12 12 10 7 5 4 4 5 5 4 3 3 4 2 5 6 7 6 5 8 9 12 16 18 20 21 21 22 23 23 24 24
9 10 10 11 11 11 11 10 9 10 9 8 8 7 5 4 4 3 4 4 5 5 5 4 3 4 6 7 7 8 10 11 14 18 19 20 21 22 22 23 24 24 25
6 6 6 7 7 8 9 9 8 8 10 8 8 9 7 6 5 5 5 4 3 3 3 3 3 3 5 6 9 11 12 14 16 18 19 20 21 22 23 23 24 24 25
3 4 4 5 6 7 9 9 9 11 11 10 10 10 10 9 7 6 6 5 4 3 3 1 2 2 4 6 8 10 12 12 13 17 19 20 22 22 22 23 23 23 24
1 1 2 4 5 7 8 9 10 11 12 12 11 12 11 9 9 7 5 5 4 3 2 2 3 4 6 7 8 9 11 12 14 17 19 21 22 22 22 22 22 22 23
5 5 4 5 6 7 8 9 10 10 11 11 11 11 11 10 9 6 6 5 3 2 2 3 4 4 5 6 8 9 10 11 13 15 17 19 20 20 20 22 23 24 25
8 9 8 8 9 9 10 11 12 12 12 11 11 10 9 8 8 7 5 4 3 3 3 4 5 5 6 7 7 8 9 9 10 12 15 16 18 19 21 23 24 25 25
12 12 12 12 11 10 10 12 13 13 13 12 11 10 8 8 8 5 3 3 3 3 4 4 5 6 6 6 7 7 9 10 11 10 10 9 12 13 17 20 21 22 23
12 13 12 12 12 11 16 17 14 12 12 11 10 9 8 7 6 4 2 2 3 4 4 5 6 7 8 8 8 8 9 10 10 6 9 12 12 13 14 16 20 23 25
13 13 13 13 14 15 19 19 17 12 11 9 8 7 5 4 3 1 0 2 3 4 6 6 8 9 9 9 9 10 10 11 13 12 13 14 13 14 13 17 22 25 26
11 12 12 13 13 15 18 18 17 11 10 8 7 5 4 3 1 1 2 3 4 5 6 6 8 9 9 9 10 11 12 13 14 12 12 13 13 13 13 16 21 24 25
11 10 10 11 12 12 15 14 11 7 7 7 5 4 2 1 2 4 4 4 6 6 6 9 11 13 15 15 14 10 10 10 11 11 9 8 9 12 13 14 15 18 21
10 10 10 9 9 9 11 10 7 5 5 4 3 2 2 3 4 5 5 5 7 7 7 8 9 10 11 11 11 9 8 8 8 7 6 5 8 8 8 8 9 11 15
Wind_Direction
202 200 201 199 202 200 196 200 199 191 191 186 188 190 187 187 182 173 150 143 142 143 141 134 126 116 106 93 81 68 57 49 43 37 33 30 27 22 19 18 15 11 5
209 205 207 205 207 205 205 204 204 197 196 193 191 194 194 189 190 185 169 153 146 148 151 149 140 129 116 101 86 71 57 43 32 24 18 15 12 7 3 3 0 356 352
213 210 212 209 209 207 206 208 204 201 197 193 195 195 196 198 195 190 184 176 165 156 160 161 154 145 129 111 91 71 51 33 16 5 359 354 349 346 341 340 339 338 336
216 215 215 213 210 206 204 203 200 199 198 199 197 193 197 198 202 197 191 190 184 177 169 167 165 160 150 131 95 61 36 11 353 342 335 332 329 324 322 321 320 320 321
217 216 218 215 210 207 206 204 205 205 204 201 199 194 199 200 202 201 202 197 193 190 183 163 163 160 164 160 137 27 359 343 330 321 316 314 313 310 309 309 309 309 309
219 218 219 217 210 207 207 205 204 205 208 194 189 195 205 208 209 208 207 202 197 196 197 186 182 172 169 174 180 286 321 321 315 309 306 305 304 303 302 302 301 301 302
221 218 219 217 211 210 209 208 203 201 199 182 178 197 210 218 219 212 211 207 203 201 200 198 200 194 187 180 186 235 296 305 306 305 304 301 300 300 300 299 298 297 297
224 219 219 217 212 212 211 208 202 201 195 188 193 196 213 211 219 215 211 212 208 202 206 205 203 202 202 202 176 179 262 300 304 306 306 304 302 301 300 299 298 297 295
224 220 220 220 215 212 213 209 204 202 199 198 203 200 207 220 189 193 211 211 209 205 205 204 204 201 200 201 193 175 181 297 302 305 306 305 303 301 299 297 296 295 294
225 223 222 221 219 215 216 212 209 209 206 199 205 222 237 237 188 181 195 209 211 213 208 199 199 196 194 191 182 166 185 277 296 303 305 304 302 300 298 296 295 294 293
229 224 222 222 222 219 219 215 210 211 210 206 198 198 210 220 225 207 191 187 201 210 207 201 194 191 187 186 186 176 189 271 301 306 305 304 302 300 298 297 295 295 294
235 228 223 223 223 222 222 221 215 214 214 214 206 199 195 196 205 208 204 180 185 180 189 193 193 185 184 185 184 172 208 278 302 305 304 302 300 299 298 297 296 294 292
241 234 226 225 225 224 223 221 220 217 217 216 212 209 210 205 186 189 185 159 152 145 176 191 191 181 183 188 185 192 240 281 298 301 300 300 300 300 298 296 293 291 290
247 241 233 229 226 222 218 214 216 216 215 217 217 209 201 190 174 172 165 151 146 161 185 180 166 186 187 198 205 234 265 276 291 297 298 298 298 297 295 293 291 290 289
257 248 239 230 222 214 207 200 205 200 194 196 191 180 168 149 131 119 120 142 157 178 198 178 177 184 194 211 228 257 275 279 287 292 293 294 294 293 292 290 288 287 286
255 243 236 225 208 196 189 184 183 179 174 169 159 153 143 134 122 113 110 102 107 142 170 170 186 170 192 222 245 263 272 279 281 284 287 290 291 290 288 287 285 284 283
254 231 213 198 184 179 175 171 170 165 160 152 149 145 139 132 123 113 108 106 100 109 156 166 188 196 219 245 259 265 273 279 281 281 285 289 289 288 287 286 284 283 282
30 141 154 159 159 157 157 158 156 154 151 148 144 137 133 127 119 118 116 114 115 113 146 201 215 219 238 255 269 277 281 281 281 284 288 289 289 288 286 284 282 281 281
62 75 93 111 121 127 130 134 135 134 131 131 131 130 128 127 123 120 120 120 123 137 172 220 243 242 252 262 276 279 280 281 283 285 288 288 288 286 285 284 283 283 283
67 73 78 85 93 100 106 111 113 113 110 108 108 110 114 119 123 126 125 130 145 177 208 231 250 260 265 270 274 284 290 291 292 293 290 286 285 285 284 282 282 281 281
69 74 78 79 82 87 97 103 104 104 103 100 95 94 97 107 118 124 134 157 183 213 232 248 261 271 274 281 285 295 295 299 297 294 290 288 289 287 286 283 281 279 279
72 75 78 81 82 88 97 99 101 98 98 98 96 92 93 92 102 111 136 200 228 244 254 262 271 275 283 288 294 294 296 299 301 297 298 296 294 289 286 283 282 283 283
72 74 77 80 83 88 92 92 92 93 93 94 98 101 102 104 100 96 23 269 263 273 273 277 278 281 288 293 295 293 290 289 287 290 295 291 292 288 288 285 284 284 284
73 75 76 78 82 84 87 89 90 88 91 94 98 105 110 115 113 283 272 271 273 272 276 277 279 283 285 288 286 284 286 286 284 283 281 284 289 290 292 289 286 285 285
74 74 76 81 85 85 88 93 94 97 99 99 98 92 77 38 323 296 287 287 290 288 279 279 283 284 286 287 288 287 283 283 288 290 289 282 289 297 294 287 283 282 282
82 83 79 79 88 96 97 95 91 92 95 95 91 73 36 347 329 315 302 293 292 300 302 296 288 284 284 283 279 268 268 271 278 288 285 279 290 305 299 283 284 287 287
Height
1548 1549 1550 1551 1553 1554 1555 1555 1556 1557 1557 1557 1558 1558 1558 1558 1559 1559 1558 1557 1557 1557 1557 1556 1556 1555 1555 1554 1554 1553 1553 1552 1552 1551 1551 1550 1550 1549 1548 1547 1547 1546 1546
1544 1546 1547 1548 1550 1551 1552 1553 1554 1554 1555 1555 1555 1556 1556 1556 1557 1557 1557 1555 1555 1555 1555 1555 1555 1554 1554 1554 1553 1553 1552 1551 1551 1550 1549 1549 1548 1547 1547 1546 1545 1544 1544
1540 1542 1543 1544 1545 1547 1548 1549 1550 1551 1552 1552 1553 1553 1554 1554 1554 1555 1555 1554 1554 1553 1553 1553 1553 1553 1553 1552 1552 1551 1551 1550 1549 1549 1548 1547 1546 1545 1545 1544 1543 1542 1541
1536 1537 1538 1539 1541 1543 1544 1545 1546 1547 1548 1549 1550 1550 1551 1551 1551 1551 1551 1551 1551 1551 1551 1551 1551 1551 1551 1551 1550 1550 1549 1548 1548 1547 1546 1545 1544 1543 1543 1542 1541 1540 1539
1531 1532 1533 1534 1536 1537 1539 1540 1542 1543 1544 1546 1546 1547 1547 1548 1548 1548 1548 1548 1548 1549 1549 1548 1549 1549 1549 1549 1549 1548 1547 1546 1545 1544 1544 1543 1542 1541 1540 1539 1539 1538 1537
1525 1526 1527 1528 1530 1531 1533 1535 1536 1538 1540 1541 1542 1543 1544 1544 1544 1544 1544 1544 1544 1545 1545 1545 1546 1546 1546 1546 1546 1545 1545 1544 1543 1542 1541 1540 1539 1538 1537 1537 1536 1535 1534
1518 1519 1521 1522 1523 1524 1526 1529 1531 1532 1534 1536 1538 1539 1539 1539 1539 1539 1540 1540 1540 1541 1541 1542 1542 1542 1542 1543 1542 1542 1542 1541 1540 1539 1538 1537 1536 1535 1534 1533 1533 1532 1530
1511 1512 1514 1515 1516 1518 1519 1521 1523 1525 1527 1530 1532 1534 1534 1535 1532 1533 1534 1535 1535 1536 1537 1537 1538 1538 1538 1538 1538 1538 1538 1537 1536 1535 1534 1533 1532 1531 1530 1529 1528 1527 1526
1503 1504 1506 1507 1508 1510 1511 1513 1515 1517 1519 1522 1525 1527 1528 1527 1527 1527 1527 1528 1529 1530 1531 1532 1533 1533 1534 1534 1533 1533 1533 1532 1531 1530 1529 1528 1527 1526 1524 1523 1522 1521 1520
1495 1496 1497 1499 1500 1502 1503 1505 1507 1509 1512 1513 1516 1518 1520 1521 1521 1520 1521 1522 1523 1524 1525 1526 1527 1527 1528 1528 1528 1528 1527 1527 1526 1525 1524 1522 1521 1520 1518 1517 1516 1515 1513
1487 1488 1489 1490 1492 1493 1495 1497 1499 1501 1503 1505 1506 1508 1511 1513 1514 1516 1515 1515 1516 1518 1519 1520 1521 1522 1522 1523 1523 1522 1522 1521 1520 1519 1517 1516 1514 1512 1511 1510 1508 1507 1505
1479 1480 1481 1482 1484 1485 1487 1488 1490 1492 1494 1496 1498 1499 1501 1503 1504 1507 1508 1508 1510 1511 1512 1514 1515 1516 1517 1517 1516 1516 1515 1515 1514 1512 1511 1509 1507 1505 1503 1501 1500 1498 1497
1472 1472 1473 1474 1475 1477 1479 1481 1482 1483 1485 1488 1489 1491 1493 1495 1497 1499 1501 1502 1503 1504 1505 1506 1508 1509 1510 1511 1510 1509 1509 1508 1507 1506 1504 1502 1499 1497 1494 1492 1490 1489 1488
1464 1465 1466 1467 1468 1469 1471 1473 1474 1476 1478 1480 1482 1484 1485 1487 1489 1491 1493 1495 1496 1497 1499 1500 1502 1502 1503 1505 1504 1503 1501 1500 1499 1498 1496 1493 1491 1488 1486 1483 1482 1480 1478
1457 1458 1459 1459 1460 1462 1463 1465 1466 1468 1470 1472 1474 1476 1478 1480 1481 1483 1485 1488 1490 1491 1492 1494 1495 1496 1497 1498 1497 1495 1494 1492 1490 1489 1487 1485 1482 1479 1477 1475 1473 1471 1470
1450 1451 1451 1452 1453 1454 1456 1458 1459 1461 1463 1465 1467 1469 1471 1473 1475 1477 1479 1481 1483 1485 1487 1487 1489 1490 1491 1491 1490 1488 1486 1484 1482 1481 1479 1476 1473 1471 1468 1466 1464 1463 1461
1444 1445 1445 1446 1447 1448 1449 1451 1453 1454 1456 1458 1460 1462 1464 1467 1469 1471 1473 1476 1478 1480 1482 1482 1484 1484 1484 1484 1482 1481 1479 1476 1474 1473 1470 1467 1465 1462 1460 1458 1456 1454 1453
1439 1440 1440 1440 1441 1442 1444 1445 1447 1449 1450 1452 1454 1457 1459 1462 1465 1467 1470 1472 1474 1475 1477 1477 1478 1478 1478 1477 1476 1474 1472 1470 1467 1465 1463 1460 1457 1454 1452 1450 1448 1447 1445
1436 1436 1436 1437 1437 1438 1439 1441 1443 1444 1446 1448 1451 1453 1456 1460 1462 1465 1467 1468 1470 1471 1472 1473 1472 1472 1471 1471 1469 1467 1465 1463 1460 1458 1455 1452 1450 1447 1445 1443 1441 1439 1437
1434 1434 1434 1434 1434 1435 1436 1437 1439 1441 1444 1447 1449 1452 1455 1458 1461 1463 1464 1465 1466 1467 1467 1467 1467 1466 1466 1464 1463 1461 1458 1457 1454 1452 1448 1446 1443 1441 1439 1436 1434 1431 1428
1434 1433 1433 1433 1433 1434 1435 1436 1438 1441 1444 1447 1449 1452 1455 1457 1459 1460 1461 1462 1462 1463 1463 1463 1462 1461 1461 1460 1459 1456 1453 1450 1448 1446 1442 1440 1437 1434 1431 1428 1426 1423 1420
1434 1434 1434 1434 1435 1436 1437 1439 1441 1443 1446 1448 1450 1452 1454 1455 1457 1458 1458 1459 1460 1460 1459 1458 1457 1457 1456 1455 1453 1451 1449 1446 1442 1441 1438 1434 1432 1427 1424 1421 1418 1415 1412
1437 1437 1437 1438 1439 1440 1441 1443 1445 1446 1448 1449 1451 1452 1453 1454 1455 1455 1456 1456 1455 1455 1454 1454 1453 1452 1451 1450 1448 1446 1444 1441 1438 1436 1433 1427 1425 1421 1417 1414 1411 1408 1404
1442 1442 1443 1443 1444 1444 1446 1446 1448 1448 1449 1450 1451 1452 1452 1453 1453 1453 1452 1452 1451 1451 1450 1448 1448 1447 1446 1444 1443 1441 1439 1436 1433 1431 1428 1423 1418 1415 1410 1407 1404 1400 1397
1447 1447 1448 1448 1448 1449 1449 1450 1450 1450 1451 1451 1451 1451 1451 1451 1450 1449 1449 1449 1448 1447 1446 1444 1443 1442 1440 1439 1438 1436 1434 1431 1427 1425 1423 1418 1412 1408 1402 1398 1395 1392 1389
1452 1452 1452 1452 1452 1452 1452 1452 1452 1452 1452 1451 1451 1450 1449 1448 1447 1447 1447 1446 1445 1444 1442 1440 1439 1438 1436 1435 1433 1431 1429 1426 1423 1418 1416 1412 1407 1402 1394 1389 1387 1384 1380